2018-099K (43767 NORAD) Tracking and Keplerian Element Data

This shows tracking and keplerian element data for the satellite.

Feedback or suggestion? Click here.




ElementValue
Catalog43767
Name2018-099K
Epoch Orbit93
Epoch Day343.97810767
Epoch Year2018
RAAN53.0677
Inclination97.7672
Eccentricity0.0010655
Argument of Perigee235.3899
Mean Anonmoly124.6317
Mean Motion14.94487345
Decay Rate-1.8E-06
L11 43767U 18099K 18343.97810767 -.00000180 00000-0 -11304-4 0 9992
L22 43767 97.7672 53.0677 0010655 235.3899 124.6317 14.94487345 936

Live tracking and technical data element details for 2018-099K (NORAD 43767). 2018-099K can be tracked NOW for your location showing map with azimuth and elevation plus other details from your city location.

Track the satellite on the map from your city or location and see movement details for azimuth, elevation, latitude, longitude, range, height, and movement on the map or in text.







IsCatalogInMostPopularTable: catalog: 43767, numindb: 1
Update: records affected: 1



GetName: 43767 2018-099K

Hit Count: updated at: Tue, 11 Dec 2018 03:06:39 GMT